Sulphur, LA

10:01 AM CDT on March 29, 2017 (GMT -0500)
Sulphur

Weather History for KUXL - January, 2014

Change the Weather History Date:

Friday, January 31, 2014

  Actual Average (KLCH) Record (KLCH)
Temperature  
Mean Temperature 58 °F -  
Max Temperature 66 °F 63 °F 80 °F (2002)
Min Temperature 50 °F 43 °F 19 °F (1949)
Degree Days  
Heating Degree Days 7    
Growing Degree Days 8 (Base 50)    
Moisture  
Dew Point 51 °F    
Average Humidity 80    
Maximum Humidity 95    
Minimum Humidity 60    
Precipitation  
Precipitation 0.00 in - - ()
Sea Level Pressure  
Sea Level Pressure 30.02 in    
Wind  
Wind Speed 11 mph (SE)    
Max Wind Speed 20 mph    
Max Gust Speed 28 mph    
Visibility 10 miles    
Events      
Averages and records for this station are not official NWS values.
T = Trace of Precipitation, MM = Missing Value Source: NWS Daily Summary

Daily Weather History Graph

Daily Weather History Graph

Search for Another Location

Airport or City:

Trip Planner

Search our weather history database for the weather conditions in past years. The results will help you decide how hot, cold, wet, or windy it might be!

Date:

Astronomy

Jan. 31, 2014 Rise Set
Actual Time 7:04 AM CST 5:49 PM CST
Civil Twilight 6:39 AM CST 6:14 PM CST
Nautical Twilight 6:10 AM CST 6:43 PM CST
Astronomical Twilight 5:42 AM CST 7:11 PM CST
Moon 7:22 AM CST (1/31) 7:05 PM CST (1/31)
Length of Visible Light 11h 35m
Length of Day
10h 45m
New Moon, 1% of the Moon is Illuminated
Jan 31
New Moon
Feb 6
First Quarter
Feb 14
Full
Feb 22
Last Quarter
Mar 1
New

Hourly Weather History & Observations

Time (CST) Temp. Dew Point Humidity Pressure Visibility Wind Dir Wind Speed Gust Speed Precip Events Conditions
12:15 AM 50.0 °F 48.4 °F 94% 30.04 in 10.0 mi SE 10.4 mph 17.3 mph N/A   Overcast
12:35 AM 50.2 °F 48.6 °F 94% 30.04 in 10.0 mi SE 10.4 mph - N/A   Overcast
12:55 AM 50.4 °F 48.7 °F 94% 30.04 in 10.0 mi SE 9.2 mph - N/A   Overcast
1:15 AM 50.5 °F 49.1 °F 95% 30.04 in 10.0 mi SE 11.5 mph 19.6 mph N/A   Overcast
1:35 AM 50.9 °F 49.1 °F 94% 30.05 in 10.0 mi SE 9.2 mph 18.4 mph N/A   Overcast
1:55 AM 51.3 °F 49.5 °F 94% 30.05 in 10.0 mi SE 8.1 mph - N/A   Overcast
2:15 AM 51.4 °F 49.5 °F 93% 30.05 in 10.0 mi SE 10.4 mph 16.1 mph N/A   Overcast
2:35 AM 51.8 °F 49.6 °F 92% 30.04 in 10.0 mi SE 8.1 mph - N/A   Overcast
2:55 AM 51.8 °F 49.5 °F 92% 30.04 in 10.0 mi SE 8.1 mph - N/A   Overcast
3:15 AM 51.4 °F 49.3 °F 92% 30.03 in 10.0 mi ESE 10.4 mph - N/A   Overcast
3:35 AM 51.8 °F 49.3 °F 91% 30.03 in 10.0 mi ESE 10.4 mph 17.3 mph N/A   Overcast
3:55 AM 51.4 °F 49.1 °F 92% 30.03 in 10.0 mi ESE 10.4 mph 17.3 mph N/A   Overcast
4:15 AM 51.4 °F 48.7 °F 90% 30.03 in 10.0 mi ESE 8.1 mph - N/A   Overcast
4:35 AM 50.9 °F 48.4 °F 91% 30.02 in 10.0 mi ESE 9.2 mph - N/A   Overcast
4:55 AM 50.9 °F 48.4 °F 91% 30.01 in 10.0 mi ESE 10.4 mph - N/A   Overcast
5:15 AM 50.5 °F 48.2 °F 92% 30.01 in 10.0 mi ESE 8.1 mph - N/A   Overcast
5:35 AM 50.4 °F 48.2 °F 92% 30.01 in 10.0 mi ESE 11.5 mph - N/A   Overcast
5:55 AM 50.9 °F 48.2 °F 90% 30.02 in 10.0 mi ESE 8.1 mph - N/A   Overcast
6:15 AM 51.1 °F 48.2 °F 90% 30.02 in 10.0 mi ESE 9.2 mph - N/A   Overcast
6:35 AM 51.1 °F 48.0 °F 89% 30.03 in 10.0 mi ESE 11.5 mph - N/A   Overcast
6:55 AM 51.1 °F 48.2 °F 90% 30.04 in 10.0 mi ESE 10.4 mph - N/A   Overcast
7:15 AM 51.1 °F 48.2 °F 90% 30.04 in 10.0 mi ESE 10.4 mph - N/A   Overcast
7:35 AM 51.3 °F 48.2 °F 89% 30.04 in 10.0 mi ESE 11.5 mph - N/A   Overcast
7:55 AM 51.8 °F 48.2 °F 88% 30.05 in 10.0 mi ESE 10.4 mph - N/A   Overcast
8:15 AM 52.7 °F 48.6 °F 86% 30.05 in 10.0 mi ESE 11.5 mph 16.1 mph N/A   Overcast
8:35 AM 53.6 °F 48.7 °F 84% 30.05 in 10.0 mi ESE 13.8 mph 18.4 mph N/A   Overcast
8:55 AM 54.5 °F 49.3 °F 83% 30.06 in 10.0 mi ESE 11.5 mph - N/A   Overcast
9:15 AM 56.3 °F 50.0 °F 79% 30.06 in 10.0 mi ESE 11.5 mph 16.1 mph N/A   Overcast
9:35 AM 58.8 °F 51.1 °F 75% 30.06 in 10.0 mi SE 15.0 mph 19.6 mph N/A   Overcast
9:55 AM 60.1 °F 51.6 °F 74% 30.07 in 10.0 mi SE 15.0 mph 21.9 mph N/A   Overcast
10:15 AM 61.5 °F 52.0 °F 71% 30.07 in 10.0 mi SE 16.1 mph 21.9 mph N/A   Overcast
10:35 AM 62.1 °F 51.8 °F 69% 30.08 in 10.0 mi SE 16.1 mph 20.7 mph N/A   Overcast
10:55 AM 62.4 °F 52.0 °F 69% 30.08 in 10.0 mi SE 15.0 mph 21.9 mph N/A   Overcast
11:15 AM 63.0 °F 52.3 °F 68% 30.07 in 10.0 mi SE 17.3 mph 21.9 mph N/A   Overcast
11:35 AM 63.9 °F 52.7 °F 67% 30.06 in 10.0 mi SE 13.8 mph 20.7 mph N/A   Overcast
11:55 AM 64.8 °F 52.9 °F 65% 30.06 in 10.0 mi SE 15.0 mph 21.9 mph N/A   Overcast
12:15 PM 65.8 °F 52.9 °F 63% 30.05 in 10.0 mi SSE 17.3 mph 25.3 mph N/A   Overcast
12:35 PM 65.7 °F 52.7 °F 63% 30.04 in 10.0 mi SSE 17.3 mph - N/A   Overcast
12:55 PM 66.4 °F 52.7 °F 61% 30.02 in 10.0 mi SSE 16.1 mph 23.0 mph N/A   Overcast
1:15 PM 65.5 °F 52.2 °F 62% 30.01 in 10.0 mi SSE 19.6 mph 27.6 mph N/A   Overcast
1:35 PM 65.3 °F 52.0 °F 62% 30.01 in 10.0 mi SSE 19.6 mph 23.0 mph N/A   Overcast
1:55 PM 65.7 °F 52.0 °F 61% 30.01 in 10.0 mi SE 16.1 mph 20.7 mph N/A   Overcast
2:15 PM 65.5 °F 51.6 °F 61% 30.01 in 10.0 mi SSE 15.0 mph 21.9 mph N/A   Overcast
2:35 PM 65.5 °F 51.8 °F 61% 30.00 in 10.0 mi SSE 13.8 mph 19.6 mph N/A   Overcast
2:55 PM 65.3 °F 51.3 °F 60% 30.00 in 10.0 mi SE 17.3 mph 20.7 mph N/A   Overcast
3:15 PM 65.1 °F 51.3 °F 61% 30.00 in 10.0 mi SE 15.0 mph 23.0 mph N/A   Overcast
3:35 PM 65.7 °F 51.4 °F 60% 29.99 in 10.0 mi SE 12.7 mph 18.4 mph N/A   Overcast
3:55 PM 64.9 °F 51.8 °F 62% 29.99 in 10.0 mi SE 15.0 mph 20.7 mph N/A   Overcast
4:15 PM 64.4 °F 52.0 °F 64% 29.99 in 10.0 mi SE 15.0 mph 19.6 mph N/A   Overcast
4:35 PM 63.5 °F 52.3 °F 67% 29.99 in 10.0 mi SE 12.7 mph 18.4 mph N/A   Overcast
4:55 PM 62.6 °F 52.3 °F 69% 29.99 in 10.0 mi SE 10.4 mph 16.1 mph N/A   Overcast
5:15 PM 61.5 °F 52.7 °F 73% 29.99 in 10.0 mi SE 11.5 mph - N/A   Overcast
5:35 PM 60.6 °F 52.7 °F 75% 29.99 in 10.0 mi SE 9.2 mph 17.3 mph N/A   Mostly Cloudy
5:55 PM 59.0 °F 52.2 °F 78% 29.98 in 10.0 mi SE 10.4 mph - N/A   Mostly Cloudy
6:15 PM 57.7 °F 51.8 °F 81% 29.98 in 10.0 mi SE 8.1 mph - N/A   Scattered Clouds
6:35 PM 57.9 °F 51.8 °F 80% 30.00 in 10.0 mi SE 9.2 mph - N/A   Mostly Cloudy
6:55 PM 57.2 °F 51.1 °F 80% 30.00 in 10.0 mi SE 9.2 mph - N/A   Overcast
7:15 PM 56.5 °F 50.9 °F 82% 30.00 in 10.0 mi SE 10.4 mph - N/A   Mostly Cloudy
7:35 PM 56.3 °F 50.5 °F 81% 30.00 in 10.0 mi SE 10.4 mph - N/A   Scattered Clouds
7:55 PM 56.3 °F 50.9 °F 82% 30.00 in 10.0 mi SE 10.4 mph - N/A   Clear
8:15 PM 55.8 °F 50.7 °F 83% 30.00 in 10.0 mi SE 12.7 mph 17.3 mph N/A   Clear
8:35 PM 55.8 °F 50.9 °F 84% 30.00 in 10.0 mi SE 10.4 mph 19.6 mph N/A   Clear
8:55 PM 55.8 °F 50.9 °F 84% 30.00 in 10.0 mi SE 10.4 mph - N/A   Clear
9:15 PM 55.4 °F 50.9 °F 85% 30.00 in 10.0 mi SE 9.2 mph - N/A   Clear
9:35 PM 55.0 °F 50.9 °F 86% 30.00 in 10.0 mi SE 8.1 mph - N/A   Clear
9:55 PM 54.9 °F 50.9 °F 86% 30.00 in 10.0 mi SE 8.1 mph - N/A   Clear
10:15 PM 54.9 °F 50.9 °F 86% 30.00 in 10.0 mi SE 8.1 mph - N/A   Clear
10:35 PM 55.4 °F 51.3 °F 86% 29.99 in 10.0 mi ESE 9.2 mph - N/A   Clear
10:55 PM 55.4 °F 51.6 °F 87% 29.98 in 10.0 mi ESE 10.4 mph - N/A   Clear
11:15 PM 55.4 °F 51.8 °F 88% 29.98 in 10.0 mi ESE 9.2 mph - N/A   Clear
11:35 PM 55.0 °F 52.2 °F 90% 29.97 in 10.0 mi SE 8.1 mph - N/A   Clear
11:55 PM 54.5 °F 52.7 °F 94% 29.97 in 10.0 mi SE 8.1 mph - N/A   Clear